User: anonymous   Login
Location: Unspecified
(0.0000°N, 0.0000°E)
Time: 15:28:39
(UTC+00:00)
Language:

PEASSS - Orbit

View from above orbital plane
View from above orbital plane
View from above satellite
View from above satellite

Ground track
Ground track

The orbit data is extracted from the following two-line orbital elements,

1 42015U 17008BV  17229.21977145  .00001226  00000-0  55192-4 0  9992
2 42015  97.4902 290.5119 0007048  20.7852 339.3669 15.22980475 27635
Epoch (UTC): 17 August 2017 05:16:28
Eccentricity: 0.0007048
inclination: 97.4902°
perigee height: 492 km
apogee height: 502 km
right ascension of ascending node: 290.5119°
argument of perigee: 20.7852°
revolutions per day: 15.22980475
mean anomaly at epoch: 339.3669°
orbit number at epoch: 2763

The dashed part of the orbit path shows where the satellite is in the earth's shadow,  

DLR